Simultaneous Nadir Overpasses (SNOs) Predictions

Prediction of SNOs between GOES-16 and AQUA Satellite Orbit:

Table of predicted SNOs for the next 14.0 days since TLE Epoch: 4/13/2024
Index Date Time (GOES-16) GOES-16 Lat,Lon AQUA Lat,Lon Distance(km) Time Diff (sec)
1 04/14/2024 06:48:16 -0.01, -75.21 -0.91, -71.03 475.92 80
2 04/14/2024 19:08:41 0.01, -75.21 -0.14, -75.97 86.30 80
3 04/16/2024 18:55:21 0.00, -75.22 0.71, -72.06 360.11 80
4 04/17/2024 07:15:37 -0.00, -75.23 0.36, -76.96 196.70 80
5 04/19/2024 06:56:56 -0.00, -75.25 -0.47, -73.05 251.01 80
6 04/19/2024 19:17:20 -0.00, -75.25 -0.61, -77.98 310.63 80
7 04/21/2024 19:03:59 -0.00, -75.29 0.28, -74.07 138.39 80
8 04/22/2024 07:24:14 0.00, -75.30 0.78, -78.98 417.74 80
9 04/24/2024 07:05:31 -0.00, -75.34 -0.03, -75.05 32.18 80
10 04/26/2024 06:49:30 -0.00, -75.37 -0.94, -71.14 482.20 80
11 04/26/2024 19:09:52 -0.00, -75.37 -0.16, -76.07 78.93 80
